{"data":{"norad_id":62333,"epoch":"2026-05-25T03:43:47.137152Z","epoch_age_seconds":61209,"freshness":"FRESH","line1":"1 62333U 24241A   26145.15540668  .00006129  00000+0  34055-3 0  9990","line2":"2 62333  97.5312  93.0691 0002277  87.9297 272.2195 15.14065378 79312","mean_motion":15.14065378,"eccentricity":0.0002277,"inclination_deg":97.5312,"raan_deg":93.0691,"arg_perigee_deg":87.9297,"mean_anomaly_deg":272.2195,"bstar":0.00034055,"rev_number":7931,"period_min":95.108178347104,"perigee_km":522.24587693763,"apogee_km":525.38902699505,"semimajor_km":6901.9544519663,"source":"CELESTRAK","updated_at":"2026-05-25T13:38:02.939126Z"}}